Orbital Elements at Epoch 2459200.5 (2020-Dec-17.0) TDB
Reference: JPL 24 (heliocentric ecliptic J2000)
Element | Value | Uncertainty (1-sigma) | Units |
e | .1287735787390923 | 5.3873e-08 | |
a | 3.210201131207223 | 2.522e-08 | au |
q | 2.796812043069386 | 1.6746e-07 | au |
i | 22.46588513567889 | 6.1034e-06 | deg |
node | 198.0947207047928 | 9.8102e-06 | deg |
peri | 175.6986324936285 | 1.8661e-05 | deg |
M | 221.1845185152187 | 1.7463e-05 | deg |
tp | 2460010.587992783193 (2023-Mar-07.08799278) | 0.00010707 | TDB |
period | 2100.858450964073 5.75 | 2.4757e-05 6.778e-08 | d yr |
n | .1713585224339117 | 2.0193e-09 | deg/d |
Q | 3.623590219345059 | 2.8467e-08 | au |
|
| | Orbit Determination Parameters
Additional Information
|